Location: Newark
(44.6768°N, 22.5302°E)
Time: 01:47:12
(UTC+00:00)

CUTE 1.7 + AOD 2 - Pass Details

Date: 09 July 2022
Orbit: 589 x 608 km, 97.7° (Epoch: 17 August)

Event Time Altitude Azimuth Distance (km) Brightness Sun altitude
Rises 01:56:12 0° 19° (NNE) 2,843 ? -8.8°
Reaches altitude 10° 01:58:29 10° 27° (NNE) 1,933 ? -8.5°
Maximum altitude 02:02:27 41° 98° (E) 870 ? -8.0°
Drops below altitude 10° 02:06:22 10° 169° (S) 1,912 ? -7.5°
Sets 02:08:37 0° 177° (S) 2,807 ? -7.2°
